ONEWEB-0163

Last updated on April 25, 2021, 12:02 a.m. UTC

1 48061U 21025V   21114.58336806 -.01059790  00000-0 -38507-1 0  9994
2 48061  87.4236 339.3007 0011603 147.2192 311.3135 15.31004977  1794
UTC
Height (km)
Latitude
Longitude
Inclination
Orbital Period
UTC large
Height (km)
Speed (km/s)
/
Latitude / Longitude
Inclination (degrees)
Orbital Period (minutes)
Azimuth
Elevation
Range (km)
Doppler Factor
iOS Compass Heading
iOS Angle

Next 30 passes for location: Hong Kong

Rise time Rise Azimuth (degrees) Set time Set Azimuth (degrees) Duration Max altitude (degrees)

No matching passes for this satellites